FW5284 Weather Reports


Display with metric or nautical units.
time (UTC)temp
F
wind
direction
speed
MPH
gust
MPH
rain 1hr
in
rain 24hr
in
rain mn
in
humidity
%
barometer
mb
20260505091011 55 33 0.0 0.0 0.00 0.11 0.01 90 975.2
20260505090508 55 33 0.0 0.0 0.00 0.11 0.01 90 975.3
20260505090030 55 33 0.0 0.0 0.00 0.11 0.01 90 975.3
20260505085507 55 33 0.0 0.0 0.00 0.11 0.01 90 974.9
20260505085015 56 33 0.0 0.0 0.00 0.11 0.01 89 974.8
20260505084517 56 34 0.0 0.0 0.00 0.11 0.01 89 975.0
20260505084005 56 33 0.0 0.0 0.00 0.11 0.01 89 975.0
20260505083505 56 33 0.0 0.0 0.00 0.11 0.01 89 975.0
20260505083021 56 34 0.0 0.0 0.00 0.11 0.01 89 975.0
20260505082507 56 34 0.0 0.0 0.00 0.11 0.01 89 975.1
20260505082007 56 33 0.0 0.0 0.00 0.11 0.01 89 975.1
20260505081526 56 33 0.0 0.0 0.00 0.11 0.01 89 975.0
20260505081014 56 34 0.0 0.0 0.00 0.11 0.01 89 974.8
20260505080513 56 34 0.0 0.0 0.00 0.11 0.01 89 974.8
20260505080034 56 34 0.0 0.0 0.00 0.11 0.01 89 974.9
20260505075506 56 33 0.0 0.0 0.00 0.11 0.01 89 974.8
20260505075016 56 33 0.0 0.0 0.00 0.11 0.01 90 974.9
20260505074527 56 33 0.0 0.0 0.00 0.11 0.01 90 974.8
20260505074009 56 33 0.0 0.0 0.00 0.11 0.01 90 974.9
20260505073510 56 33 0.0 0.0 0.00 0.11 0.01 90 974.9
20260505073017 56 33 0.0 0.0 0.00 0.11 0.01 90 974.8
20260505072507 56 33 0.0 0.0 0.00 0.11 0.01 90 974.6
20260505072007 56 33 0.0 0.0 0.00 0.11 0.01 89 974.4
20260505071520 56 33 0.0 0.0 0.00 0.11 0.01 89 974.3
20260505071011 56 33 0.0 0.0 0.00 0.11 0.01 89 974.2
20260505070510 56 33 0.0 0.0 0.00 0.11 0.01 89 974.2
20260505070028 56 33 0.0 0.0 0.00 0.11 0.01 89 974.1
20260505065509 56 34 0.0 0.0 0.00 0.11 0.01 89 973.9
20260505065007 56 34 0.0 0.0 0.00 0.11 0.01 89 973.8
20260505064545 56 34 0.0 0.0 0.00 0.11 0.01 89 973.8
20260505064007 56 34 0.0 0.0 0.00 0.11 0.01 89 973.7
20260505063504 57 34 0.0 0.0 0.00 0.11 0.01 89 973.5
20260505063009 57 34 0.0 0.0 0.00 0.11 0.01 89 973.5
20260505062503 57 34 0.0 0.0 0.00 0.11 0.01 89 973.5
20260505062002 57 34 0.0 0.0 0.00 0.11 0.01 89 973.4
20260505061504 57 34 0.0 0.0 0.00 0.11 0.01 89 973.4
20260505061007 57 34 0.0 0.0 0.00 0.11 0.01 89 973.6
20260505060504 57 34 0.0 0.0 0.00 0.11 0.01 89 973.4
20260505060005 57 34 0.0 0.0 0.01 0.11 0.01 89 973.8
20260505055505 57 34 0.0 0.0 0.01 0.11 0.01 89 973.5
20260505055003 57 34 0.0 0.0 0.01 0.11 0.01 89 973.4
20260505054506 57 34 0.0 0.0 0.01 0.11 0.01 89 973.5
20260505054003 57 33 0.0 0.0 0.01 0.11 0.01 89 973.6
20260505053503 57 33 0.0 0.0 0.01 0.11 0.01 89 973.7
20260505053007 57 30 0.0 0.0 0.01 0.11 0.01 89 973.5
20260505052503 57 32 0.0 0.0 0.01 0.11 0.01 89 973.8
20260505052005 57 32 0.0 0.0 0.01 0.11 0.01 89 973.4
20260505051512 57 32 0.0 0.0 0.01 0.11 0.01 89 973.1
20260505051004 57 32 0.0 0.0 0.01 0.11 0.01 89 973.2
20260505050503 57 33 0.0 0.0 0.01 0.11 0.01 90 973.4
20260505041519 57 33 0.0 0.0 0.05 0.10 0.00 90 973.4
20260505041004 57 33 0.0 0.0 0.05 0.10 0.00 90 973.6
20260505040504 57 34 0.0 0.0 0.06 0.10 0.00 90 973.9
20260505040015 57 34 0.0 0.0 0.06 0.10 0.00 91 974.0
20260505035503 58 33 0.0 0.0 0.06 0.10 0.10 90 974.0
20260505035002 58 34 0.0 0.0 0.06 0.09 0.09 90 973.9
20260505034503 58 34 0.0 0.0 0.07 0.09 0.09 90 974.0
20260505034003 58 34 0.0 0.0 0.08 0.08 0.08 90 974.0
20260505033503 58 34 0.0 0.0 0.07 0.07 0.07 89 974.0
20260505033004 58 34 0.0 0.0 0.07 0.07 0.07 89 974.1
20260505032503 58 34 0.0 0.0 0.06 0.06 0.06 89 974.2
20260505032004 58 34 0.0 0.0 0.06 0.06 0.06 89 974.1
20260505031507 58 34 0.0 0.0 0.05 0.05 0.05 88 974.3
20260505031003 58 34 0.0 0.0 0.05 0.05 0.05 88 974.7
20260505030504 58 34 0.0 0.0 0.04 0.04 0.04 88 974.9
20260505030015 59 34 0.0 0.0 0.04 0.04 0.04 87 974.3
20260505025506 59 34 0.0 0.0 0.04 0.04 0.04 86 974.4
20260505025006 60 34 0.0 0.0 0.03 0.03 0.03 85 974.8
20260505024534 61 37 0.0 0.0 0.02 0.02 0.02 83 975.0
20260505024006 62 37 0.0 0.0 0.00 0.00 0.00 81 975.0
20260505023503 64 39 0.0 0.0 0.00 0.00 0.00 78 974.6
20260505023003 64 34 0.0 0.0 0.00 0.00 0.00 77 973.6
20260505022506 65 32 0.0 0.0 0.00 0.00 0.00 76 973.5
20260505022004 65 34 0.0 0.0 0.00 0.00 0.00 75 973.3
20260505021508 66 34 0.0 0.0 0.00 0.00 0.00 73 973.1
20260505021004 66 35 0.0 0.0 0.00 0.00 0.00 72 973.0
20260505020502 67 37 0.0 0.0 0.00 0.00 0.00 71 973.2
20260505020011 68 34 0.0 0.0 0.00 0.00 0.00 69 973.1
20260505015511 68 34 0.0 0.0 0.00 0.00 0.00 66 972.6
20260505015003 68 34 0.0 0.0 0.00 0.00 0.00 64 972.3
20260505014515 68 34 0.0 0.0 0.00 0.00 0.00 64 972.1
20260505014004 68 34 0.0 0.0 0.00 0.00 0.00 65 972.1
20260505013508 68 34 0.0 0.0 0.00 0.00 0.00 66 972.3
20260505013023 68 34 0.0 0.0 0.00 0.00 0.00 65 972.3
20260505012506 68 34 0.0 0.0 0.00 0.00 0.00 65 972.4
20260505012003 69 34 0.0 0.0 0.00 0.00 0.00 66 972.4
20260505011506 69 34 0.0 0.0 0.00 0.00 0.00 66 972.4
20260505011005 69 37 0.0 0.0 0.00 0.00 0.00 64 972.1
20260505010504 70 36 0.0 0.0 0.00 0.00 0.00 63 972.0
20260505010009 70 30 0.0 0.0 0.00 0.00 0.00 63 971.9
20260505005504 70 36 0.0 0.0 0.00 0.00 0.00 63 971.8
20260505005004 70 36 0.0 0.0 0.00 0.00 0.00 62 971.7
20260505004515 70 36 0.0 0.0 0.00 0.00 0.00 63 971.8
20260505004004 70 36 0.0 0.0 0.00 0.00 0.00 62 971.9
20260505003513 70 32 0.0 0.0 0.00 0.00 0.00 62 971.8
20260505003019 70 36 0.0 0.0 0.00 0.00 0.00 62 971.9
20260505002508 70 36 0.0 0.0 0.00 0.00 0.00 61 971.9
20260505002006 70 36 0.0 0.0 0.00 0.00 0.00 62 971.9
20260505001522 70 36 0.0 0.0 0.00 0.00 0.00 61 971.8
20260505001012 70 37 0.0 0.0 0.00 0.00 0.00 62 971.9
20260505000507 70 34 0.0 0.0 0.00 0.00 0.00 62 971.7
20260505000013 70 36 0.0 0.0 0.00 0.00 0.00 62 971.9
20260504235503 70 35 0.0 0.0 0.00 0.00 0.00 62 971.9
20260504235004 70 35 0.0 0.0 0.00 0.00 0.00 61 971.9
20260504234512 71 36 0.0 0.0 0.00 0.00 0.00 60 971.9
20260504234004 71 35 0.0 0.0 0.00 0.00 0.00 61 971.8
20260504233508 71 37 0.0 0.0 0.00 0.00 0.00 60 971.6
20260504233022 71 34 0.0 0.0 0.00 0.00 0.00 60 971.8
20260504232504 71 37 0.0 0.0 0.00 0.00 0.00 59 971.9
20260504232012 72 38 0.0 0.0 0.00 0.00 0.00 58 972.0
20260504231527 72 32 0.0 0.0 0.00 0.00 0.00 58 971.9
20260504231006 72 34 0.0 0.0 0.00 0.00 0.00 58 971.9
20260504230506 72 32 0.0 0.0 0.00 0.00 0.00 57 972.0
20260504230023 73 36 0.0 0.0 0.00 0.00 0.00 55 972.1
20260504225508 73 37 0.0 0.0 0.00 0.00 0.00 54 972.1
20260504225007 73 37 0.0 0.0 0.00 0.00 0.00 53 972.0
20260504224508 74 35 0.0 0.0 0.00 0.00 0.00 51 972.0
20260504224005 74 41 0.0 0.0 0.00 0.00 0.00 50 972.1
20260504223503 74 38 0.0 0.0 0.00 0.00 0.00 51 972.0
20260504223012 74 42 0.0 0.0 0.00 0.00 0.00 52 971.9
20260504222504 74 30 0.0 0.0 0.00 0.00 0.00 51 971.9
20260504222008 74 32 0.0 0.0 0.00 0.00 0.00 51 971.9
20260504221520 75 39 0.0 0.0 0.00 0.00 0.00 50 972.0
20260504221006 75 40 0.0 0.0 0.00 0.00 0.00 49 971.9
20260504220508 75 34 0.0 0.0 0.00 0.00 0.00 51 971.8
20260504220022 75 35 0.0 0.0 0.00 0.00 0.00 51 971.9
20260504215507 75 33 0.0 0.0 0.00 0.00 0.00 50 971.8
20260504215007 75 34 0.0 0.0 0.00 0.00 0.00 49 971.8
20260504214527 76 36 0.0 0.0 0.00 0.00 0.00 48 971.8
20260504214010 76 37 0.0 0.0 0.00 0.00 0.00 49 971.7
20260504213505 76 38 0.0 0.0 0.00 0.00 0.00 48 971.9
20260504213012 76 32 0.0 0.0 0.00 0.00 0.00 48 971.8
20260504212508 76 37 0.0 0.0 0.00 0.00 0.00 47 971.8
20260504212009 76 33 0.0 0.0 0.00 0.00 0.00 48 971.9
20260504211502 77 33 0.0 0.0 0.00 0.00 0.00 47 972.0
20260504211002 77 35 0.0 0.0 0.00 0.00 0.00 47 971.8
20260504210502 77 34 0.0 0.0 0.00 0.00 0.00 47 971.7
20260504210003 77 33 0.0 0.0 0.00 0.00 0.00 46 971.9
20260504205503 77 36 0.0 0.0 0.00 0.00 0.00 47 971.8
20260504205007 77 35 0.0 0.0 0.00 0.00 0.00 47 971.6
20260504204503 77 36 0.0 0.0 0.00 0.00 0.00 49 971.7
20260504204003 77 35 0.0 0.0 0.00 0.00 0.00 49 971.7
20260504203503 76 33 0.0 0.0 0.00 0.00 0.00 49 971.6
20260504203020 77 34 0.0 0.0 0.00 0.00 0.00 48 971.8
20260504202504 77 37 0.0 0.0 0.00 0.00 0.00 46 971.9
20260504202006 78 34 0.0 0.0 0.00 0.00 0.00 47 971.8
20260504201512 78 34 0.0 0.0 0.00 0.00 0.00 49 971.9
20260504201006 78 32 0.0 0.0 0.00 0.00 0.00 47 972.0
20260504200509 78 36 0.0 0.0 0.00 0.00 0.00 49 972.1
20260504200003 77 32 0.0 0.0 0.00 0.00 0.00 50 972.1
20260504195502 76 25 0.0 0.0 0.00 0.00 0.00 51 972.1
20260504195002 77 34 0.0 0.0 0.00 0.00 0.00 49 972.4
20260504194504 77 31 0.0 0.0 0.00 0.00 0.00 48 972.5
20260504194003 77 27 0.0 0.0 0.00 0.00 0.00 51 972.4
20260504193502 76 35 0.0 0.0 0.00 0.00 0.00 51 972.6
20260504193014 76 31 0.0 0.0 0.00 0.00 0.00 54 972.7
20260504192503 75 32 0.0 0.0 0.00 0.00 0.00 54 972.9
20260504192004 76 32 0.0 0.0 0.00 0.00 0.00 53 973.0
20260504191511 76 34 0.0 0.0 0.00 0.00 0.00 53 972.9
20260504191004 75 32 0.0 0.0 0.00 0.00 0.00 53 973.1
20260504190505 75 34 0.0 0.0 0.00 0.00 0.00 53 973.2
20260504190017 75 33 0.0 0.0 0.00 0.00 0.00 54 973.2
20260504185509 75 28 0.0 0.0 0.00 0.00 0.00 54 973.3
20260504185006 75 34 0.0 0.0 0.00 0.00 0.00 55 973.5
20260504184528 75 37 0.0 0.0 0.00 0.00 0.00 56 973.5
20260504184003 75 32 0.0 0.0 0.00 0.00 0.00 56 973.7
20260504183503 75 34 0.0 0.0 0.00 0.00 0.00 55 973.7
20260504183004 75 27 0.0 0.0 0.00 0.00 0.00 55 973.7
20260504182503 74 32 0.0 0.0 0.00 0.00 0.00 56 973.8
20260504182003 75 36 0.0 0.0 0.00 0.00 0.00 55 973.8
20260504181508 74 34 0.0 0.0 0.00 0.00 0.00 58 973.8
20260504181004 74 33 0.0 0.0 0.00 0.00 0.00 55 973.9
20260504180504 74 37 0.0 0.0 0.00 0.00 0.00 55 974.0
20260504180015 74 32 0.0 0.0 0.00 0.00 0.00 56 973.9
20260504175504 74 34 0.0 0.0 0.00 0.00 0.00 56 973.9
20260504175005 73 34 0.0 0.0 0.00 0.00 0.00 56 973.8
20260504174516 73 32 0.0 0.0 0.00 0.00 0.00 56 974.0
20260504174007 73 32 0.0 0.0 0.00 0.00 0.00 55 974.0
20260504173508 73 34 0.0 0.0 0.00 0.00 0.00 57 974.2
20260504173024 73 34 0.0 0.0 0.00 0.00 0.00 56 974.2
20260504172502 73 32 0.0 0.0 0.00 0.00 0.00 55 974.5
20260504172003 73 34 0.0 0.0 0.00 0.00 0.00 55 974.6
20260504171507 73 32 0.0 0.0 0.00 0.00 0.00 54 974.7
20260504171007 73 36 0.0 0.0 0.00 0.00 0.00 56 974.7
20260504170504 73 26 0.0 0.0 0.00 0.00 0.00 55 974.8
20260504151006 67 29 0.0 0.0 0.00 0.00 0.00 60 976.1
20260504150510 67 27 0.0 0.0 0.00 0.00 0.00 61 976.2
20260504141012 62 27 0.0 0.0 0.00 0.00 0.00 68 976.7
20260504140506 61 27 0.0 0.0 0.00 0.00 0.00 68 976.7
20260504130508 56 26 0.0 0.0 0.00 0.00 0.00 74 977.0
20260504110506 49 24 0.0 0.0 0.00 0.00 0.00 79 977.2
20260504100503 49 23 0.0 0.0 0.00 0.00 0.00 79 977.0